www.pogodaiklimat.ru

Погода и климат >> Архив погоды >> Италия >> Казале-Монферрато


ПОГОДА в Казале-Монферрато

  • Прогноз погоды в Казале-Монферрато
  • Монитор погоды в Казале-Монферрато

АРХИВ ПОГОДЫ в Казале-Монферрато

Время (UTC), дата Ветер
(напр.,м/с)
 
Видим.   Явления Облачность Т
(С)
Тd
(С)
f
(%)
Тe
(С)
Тes
(С)
Комфортность P
(гПа)
Po
(гПа)
Тmin
(С)
Tmax
(С)
R
(мм)
R24
(мм)
S
(см)
07 12.02 ЮЗ 1 н/о н/о -2.6 -8.2 65 -5 -5 1027.0 1012.2
08 12.02 Ю 1 н/о н/о +1.2 -4.1 68 -0 -0 1027.3 1012.7
09 12.02 С 1 н/о н/о +5.5 -0.9 63 +6 +6 1027.1 1012.8
10 12.02 СВ 1 н/о н/о +9.2 -1.4 47 +10 +10 1026.4 1012.3
11 12.02 С 1 н/о н/о +11.7 -1.6 40 +12 +12 1025.6 1011.6
12 12.02 ЮЗ 2 н/о н/о +15.2 -4.8 25 +16 +16 1024.6 1010.7
13 12.02 ЮЗ 2 н/о н/о +14.4 -6.6 23 +14 +14 1024.1 1010.2
14 12.02 ЮЗ 1 н/о н/о +15.8 -6.6 21 +17 +17 1023.7 1009.9
15 12.02 Ю 3 н/о н/о +14.0 -5.3 26 +14 +14 1023.8 1009.9
16 12.02 З 1 н/о н/о +12.8 -2.4 35 +14 +14 1024.1 1010.1
17 12.02 ЮЗ 1 н/о н/о +7.8 -5.8 38 +8 +8 1024.7 1010.5
18 12.02 З 1 н/о н/о +4.1 -6.6 46 +3 +3 1026.0 1011.6 +16.1
19 12.02 Ю 2 н/о н/о +1.9 -5.4 58 -1 -1 1026.8 1012.3
20 12.02 З 1 н/о н/о +2.3 -4.1 63 +1 +1 1027.4 1012.9
21 12.02 Ю 2 н/о н/о +2.5 -4.6 59 -0 -0 1028.5 1013.9
22 12.02 СЗ 1 н/о н/о +1.5 -4.7 63 0 0 1029.4 1014.8
23 12.02 З 1 н/о н/о +0.2 -4.7 70 -2 -2 1030.4 1015.7
00 13.02 С 1 н/о н/о -0.6 -4.7 74 -1 -1 1031.7 1016.9
01 13.02 С 2 н/о н/о +0.7 -3.6 73 -2 -2 1032.1 1017.5
02 13.02 СЗ 2 н/о н/о +1.7 -3.8 67 -1 -1 1032.8 1018.2
03 13.02 СЗ 1 н/о н/о +2.5 -2.7 69 +1 +1 1033.1 1018.5
04 13.02 СЗ 2 н/о н/о +3.3 -2.3 67 +1 +1 1033.7 1019.1
05 13.02 СЗ 3 н/о н/о +3.7 -3.0 62 0 0 1034.1 1019.6
06 13.02 С 2 н/о н/о +3.2 -3.0 64 +1 +1 1034.7 1020.1 -1.8 503
07 13.02 штиль 0 н/о н/о +0.2 -5.3 66 -1 -1 1035.6 1020.9
08 13.02 СЗ 1 н/о н/о +3.1 -0.2 79 +3 +3 1036.4 1021.8
09 13.02 С 2 н/о н/о +5.1 -0.6 67 +3 +3 1036.7 1022.2
10 13.02 С 2 н/о н/о +6.2 -0.4 63 +5 +5 1037.2 1022.8
11 13.02 С 1 н/о н/о +7.5 +0.1 59 +7 +7 1037.2 1022.8
12 13.02 С 2 н/о н/о +8.7 +0.8 58 +7 +7 1036.8 1022.5
13 13.02 СЗ 1 н/о н/о +10.6 -0.1 47 +11 +11 1036.0 1021.8
14 13.02 В 1 н/о н/о +10.8 +1.2 51 +11 +11 1035.5 1021.3
15 13.02 СВ 1 н/о н/о +11.1 -1.4 42 +11 +11 1035.3 1021.1
16 13.02 В 2 н/о н/о +10.6 +0.8 51 +10 +10 1035.3 1021.1
17 13.02 Ю 1 н/о н/о +8.3 -1.1 52 +8 +8 1035.6 1021.3
18 13.02 З 1 н/о н/о +4.3 -2.9 59 +3 +3 1036.2 1021.7 +12.6
19 13.02 З 1 н/о н/о +2.9 -2.7 67 +2 +2 1036.9 1022.3
20 13.02 ЮЗ 2 н/о н/о +2.0 -2.2 74 -1 -1 1037.2 1022.5
21 13.02 З 2 н/о н/о +1.6 -2.2 76 -1 -1 1037.7 1023.0
22 13.02 З 1 н/о н/о +1.1 -2.7 76 +1 +1 1038.2 1023.5
23 13.02 З 1 н/о н/о -0.4 -3.0 83 -2 -2 1038.5 1023.7
00 14.02 З 1 н/о н/о -0.2 -2.5 84 -2 -2 1038.7 1023.9
01 14.02 З 1 н/о н/о -0.6 -3.3 82 -3 -3 1038.7 1023.9
02 14.02 ЮЗ 1 н/о н/о -1.0 -3.4 84 -3 -3 1038.5 1023.7
03 14.02 З 1 н/о н/о -2.3 -4.8 83 -3 -3 1038.5 1023.6
04 14.02 штиль 0 н/о н/о -2.3 -4.4 85 -3 -3 1038.2 1023.3
05 14.02 З 1 н/о н/о -2.6 -4.5 87 -3 -3 1038.1 1023.2
06 14.02 З 1 н/о н/о -2.7 -4.4 88 -3 -3 1037.7 1022.8 -3.2 601
07 14.02 З 1 н/о н/о -2.7 -4.4 88 -3 -3 1037.5 1022.6
08 14.02 штиль 0 н/о н/о -0.3 -1.6 91 -2 -2 1037.3 1022.5
09 14.02 В 1 н/о н/о +4.6 +3.4 92 +4 +4 1036.5 1022.0
10 14.02 В 1 н/о н/о +6.3 +2.5 77 +5 +5 1036.3 1021.9
11 14.02 ЮВ 1 н/о н/о +9.6 +3.3 65 +9 +9 1035.6 1021.4
12 14.02 СВ 1 н/о н/о +11.9 +3.3 56 +12 +12 1034.6 1020.5
13 14.02 В 1 н/о н/о +13.9 +1.4 43 +14 +14 1033.5 1019.5
14 14.02 ЮЗ 1 н/о н/о +16.3 +2.2 39 +18 +18 1032.5 1018.6
15 14.02 СВ 1 н/о н/о +15.4 +2.1 41 +16 +16 1031.8 1017.9
16 14.02 В 1 н/о н/о +15.0 +2.1 42 +16 +16 1031.3 1017.4
17 14.02 В 1 н/о н/о +10.7 +0.9 51 +11 +11 1031.5 1017.3
18 14.02 ЮЗ 1 н/о н/о +7.0 -0.1 61 +6 +6 1032.3 1018.0 +17.0
19 14.02 З 2 н/о н/о +4.4 -0.9 68 +3 +3 1032.9 1018.4
20 14.02 З 2 н/о н/о +3.5 -0.4 76 +1 +1 1033.0 1018.5
21 14.02 З 1 н/о н/о +2.5 -1.5 75 +2 +2 1033.6 1019.0
22 14.02 З 1 н/о н/о +2.0 -1.3 79 0 0 1033.7 1019.1
23 14.02 З 2 н/о н/о +2.6 0.0 83 0 0 1033.8 1019.2
00 15.02 З 2 н/о н/о +3.2 +0.2 81 +1 +1 1033.7 1019.2
01 15.02 З 1 н/о н/о +1.9 -1.8 76 +2 +2 1034.3 1019.6
02 15.02 СЗ 1 н/о н/о -0.5 -3.2 82 -3 -3 1034.2 1019.5
03 15.02 З 1 н/о н/о -0.2 -1.8 89 -2 -2 1034.1 1019.4
04 15.02 З 1 н/о н/о -0.3 -1.8 90 -1 -1 1033.7 1018.9
05 15.02 З 1 н/о н/о -0.9 -2.7 88 -2 -2 1033.8 1019.0
06 15.02 ЮВ 1 н/о н/о -2.7 -4.9 85 -3 -3 1033.7 1018.8 -2.8 201
07 15.02 штиль 0 н/о н/о -2.0 -3.4 90 -3 -3 1033.6 1018.8
08 15.02 штиль 0 н/о н/о +0.2 -1.1 91 -1 -1 1033.8 1019.1
09 15.02 В 1 н/о н/о +3.6 +2.2 91 +2 +2 1033.4 1018.9
10 15.02 С 1 н/о н/о +6.5 +3.1 79 +6 +6 1033.0 1018.6
11 15.02 Ю 1 н/о н/о +10.7 +5.2 69 +11 +11 1032.3 1018.2
12 15.02 Ю 1 н/о н/о +13.0 +4.6 57 +13 +13 1031.5 1017.5
13 15.02 ЮВ 1 н/о н/о +14.8 +4.7 51 +15 +15 1030.7 1016.8
14 15.02 В 1 н/о н/о +15.0 +4.3 49 +16 +16 1029.7 1015.8
15 15.02 В 1 н/о н/о +15.6 +4.2 47 +16 +16 1029.4 1015.5
16 15.02 ЮВ 2 н/о н/о +14.3 +5.0 54 +14 +14 1029.1 1015.2
17 15.02 ЮЗ 1 н/о н/о +12.1 +3.0 54 +13 +13 1029.6 1015.5
18 15.02 З 1 н/о н/о +6.9 0.0 61 +7 +7 1030.8 1016.4 +16.8
19 15.02 З 2 н/о н/о +5.8 +1.5 74 +4 +4 1031.4 1017.0
20 15.02 З 1 н/о н/о +4.9 +1.2 77 +4 +4 1032.1 1017.7
21 15.02 С 1 н/о н/о +4.3 +1.3 81 +3 +3 1032.5 1018.0
22 15.02 СЗ 3 н/о н/о +6.5 +3.3 80 +4 +4 1032.6 1018.2
23 15.02 СЗ 2 н/о н/о +5.4 +0.9 73 +4 +4 1033.1 1018.7
00 16.02 З 1 н/о н/о +4.8 +1.2 77 +4 +4 1033.6 1019.1
01 16.02 З 1 н/о н/о +3.1 -1.1 74 +3 +3 1033.7 1019.1
02 16.02 З 1 н/о н/о +3.0 +0.5 84 +1 +1 1033.6 1019.0
03 16.02 З 1 н/о н/о +0.3 -2.3 83 -0 -0 1033.2 1018.5
04 16.02 З 1 н/о н/о -0.7 -2.6 87 -1 -1 1033.1 1018.4
05 16.02 штиль 0 н/о н/о -1.2 -3.1 87 -2 -2 1033.1 1018.3
06 16.02 ЮЗ 1 н/о н/о -0.8 -2.1 91 -3 -3 1033.0 1018.3 -2.6 402
07 16.02 З 1 н/о н/о -0.3 -1.6 91 -1 -1 1033.3 1018.6
08 16.02 З 1 н/о н/о +0.2 -1.1 91 -0 -0 1033.9 1019.2
09 16.02 штиль 0 н/о н/о +4.3 +3.1 92 +3 +3 1033.6 1019.1
10 16.02 В 1 н/о н/о +7.4 +5.4 87 +6 +6 1033.3 1019.0
11 16.02 ЮВ 1 н/о н/о +10.2 +5.7 74 +10 +10 1033.1 1018.9
12 16.02 ЮВ 2 н/о н/о +12.6 +6.8 68 +12 +12 1032.2 1018.2
13 16.02 Ю 2 н/о н/о +14.0 +5.3 56 +14 +14 1031.3 1017.3
14 16.02 Ю 2 н/о н/о +15.0 +5.7 54 +15 +15 1030.4 1016.5
15 16.02 ЮВ 2 н/о н/о +15.4 +4.9 50 +16 +16 1029.9 1016.0
16 16.02 Ю 2 н/о н/о +14.2 +4.4 52 +14 +14 1029.6 1015.6
17 16.02 ЮЗ 1 н/о н/о +11.4 +3.3 57 +12 +12 1029.6 1015.5
18 16.02 З 1 н/о н/о +6.4 0.0 64 +6 +6 1030.1 1015.7 +15.6
19 16.02 З 2 н/о н/о +5.1 +0.8 74 +3 +3 1030.1 1015.7
20 16.02 ЮЗ 2 н/о н/о +4.8 +0.9 76 +3 +3 1030.1 1015.7
21 16.02 З 1 н/о н/о +2.6 -0.9 78 +1 +1 1030.5 1016.0
22 16.02 З 1 н/о н/о +2.2 -0.9 80 +1 +1 1030.6 1016.0
23 16.02 З 1 н/о н/о +2.3 -0.2 84 +1 +1 1030.4 1015.8
00 17.02 З 1 н/о н/о +1.0 -1.8 82 +1 +1 1030.4 1015.8
01 17.02 З 1 н/о н/о +0.4 -1.5 87 -0 -0 1030.3 1015.6
02 17.02 ЮЗ 1 н/о н/о -0.7 -3.3 83 -3 -3 1030.2 1015.5
03 17.02 штиль 0 н/о н/о -0.8 -2.3 90 -2 -2 1030.1 1015.4
04 17.02 З 1 н/о н/о -1.1 -2.6 90 -3 -3 1029.9 1015.2
05 17.02 З 1 н/о н/о -0.8 -2.3 90 -2 -2 1029.9 1015.2
06 17.02 штиль 0 н/о н/о -1.6 -3.0 90 -3 -3 1030.0 1015.2 -2.4 1
07 17.02 штиль 0 н/о н/о -2.5 -3.9 90 -4 -4 1030.4 1015.6
08 17.02 штиль 0 н/о н/о +1.0 -0.3 91 -0 -0 1030.5 1015.9
09 17.02 СЗ 1 н/о н/о +5.2 +4.1 93 +5 +5 1030.2 1015.8
10 17.02 В 1 н/о н/о +8.4 +5.6 83 +8 +8 1029.8 1015.6
11 17.02 В 1 н/о н/о +11.4 +5.6 67 +11 +11 1029.2 1015.2
12 17.02 ЮВ 1 н/о н/о +14.0 +5.8 58 +14 +14 1028.2 1014.3
13 17.02 ЮВ 2 н/о н/о +15.8 +5.9 52 +16 +16 1027.1 1013.3
14 17.02 ЮВ 1 н/о н/о +17.4 +5.3 45 +18 +18 1026.2 1012.5
15 17.02 Ю 1 н/о н/о +17.3 +3.5 40 +18 +18 1025.7 1012.0
16 17.02 Ю 1 н/о н/о +16.8 +4.4 44 +18 +18 1025.4 1011.6
17 17.02 Ю 1 н/о н/о +13.6 +2.7 48 +15 +15 1025.2 1011.3
18 17.02 З 1 н/о н/о +7.9 +0.5 59 +7 +7 1025.9 1011.7 +17.9
19 17.02 ЮЗ 1 н/о н/о +6.7 +1.7 70 +6 +6 1026.3 1012.0
20 17.02 ЮЗ 1 н/о н/о +5.0 +1.4 78 +5 +5 1026.4 1012.1
21 17.02 З 1 н/о н/о +5.2 +1.4 76 +5 +5 1026.6 1012.2
22 17.02 З 1 н/о н/о +3.2 +0.7 84 +3 +3 1026.7 1012.2
23 17.02 ЮЗ 2 н/о н/о +2.4 +0.6 88 -0 -0 1026.5 1012.0
00 18.02 СЗ 1 н/о н/о +1.7 +0.2 90 +1 +1 1026.8 1012.2
01 18.02 З 1 н/о н/о +1.0 -0.5 90 0 0 1026.6 1012.0
02 18.02 ЮЗ 1 н/о н/о +1.2 -0.1 91 -1 -1 1026.6 1012.0
03 18.02 З 1 н/о н/о +1.1 -0.2 91 +1 +1 1026.0 1011.4
04 18.02 СЗ 1 н/о н/о 0.0 -1.3 91 -1 -1 1025.8 1011.2
05 18.02 З 1 н/о н/о -0.1 -1.4 91 -2 -2 1025.7 1011.1
06 18.02 З 1 н/о н/о -0.2 -1.5 91 -1 -1 1025.7 1011.1 -0.8 1
07 18.02 З 1 н/о н/о -0.1 -1.4 91 -1 -1 1025.9 1011.3
08 18.02 З 1 н/о н/о +1.7 +0.5 92 +1 +1 1026.0 1011.5
09 18.02 СВ 1 н/о н/о +6.5 +5.4 93 +6 +6 1025.8 1011.5
10 18.02 СВ 1 н/о н/о +9.7 +7.4 86 +10 +10 1025.4 1011.3
11 18.02 СВ 1 н/о н/о +11.9 +7.6 75 +12 +12 1024.8 1010.8
12 18.02 Ю 3 н/о н/о +14.5 +6.0 57 +14 +14 1023.9 1010.0
13 18.02 ЮЗ 2 н/о н/о +16.4 +6.2 51 +17 +17 1022.9 1009.1
14 18.02 Ю 2 н/о н/о +16.4 +5.3 48 +17 +17 1022.0 1008.3
15 18.02 Ю 3 н/о н/о +16.5 +6.3 51 +16 +16 1021.6 1007.9
16 18.02 Ю 4 н/о н/о +15.0 +6.7 58 +14 +14 1021.5 1007.7
17 18.02 Ю 3 н/о н/о +11.8 +5.1 63 +10 +10 1021.6 1007.6
18 18.02 ЮЗ 2 н/о н/о +10.5 +4.1 65 +10 +10 1022.2 1008.2 +17.0
19 18.02 З 1 н/о н/о +8.0 +2.6 69 +8 +8 1022.8 1008.6
20 18.02 З 1 н/о н/о +7.8 +3.8 76 +7 +7 1023.0 1008.8
21 18.02 ЮЗ 1 н/о н/о +7.8 +4.2 78 +7 +7 1023.2 1009.0
22 18.02 ЮЗ 2 н/о н/о +7.5 +4.2 80 +6 +6 1023.2 1009.0
23 18.02 штиль 0 н/о н/о +3.8 -0.3 75 +3 +3 1023.4 1009.0
00 19.02 штиль 0 н/о н/о +3.2 +1.1 86 +2 +2 1023.5 1009.1
01 19.02 З 1 н/о н/о +1.5 -0.1 89 -0 -0 1023.4 1008.9
02 19.02 ЮЗ 1 н/о н/о +1.2 -0.3 90 -1 -1 1023.2 1008.7
03 19.02 З 1 н/о н/о +0.5 -1.0 90 -0 -0 1022.9 1008.3
04 19.02 З 1 н/о н/о +0.5 -0.8 91 -2 -2 1022.9 1008.3
05 19.02 З 1 н/о н/о -0.7 -2.0 91 -1 -1 1023.0 1008.4
06 19.02 З 1 н/о н/о -0.8 -2.1 91 -2 -2 1022.9 1008.3 -1.3 601
07 19.02 З 1 н/о н/о -0.6 -1.9 91 -1 -1 1023.3 1008.7

 

Местоположение метеостанции Казале-Монферрато (Италия): широта 45.13 долгота 8.45 высота над уровнем моря 119 м.

В архиве по умолчанию представлена погода в Казале-Монферрато за последнюю неделю. Архивные данные за месяц целиком и за предыдущие месяцы, начиная с января 2011 года, Вы можете получить, выбрав интересующий диапазон дат из раскрывающегося списка и нажав кнопку "Ввод!".


*Определитесь, кто Вы:
робот инопланетянин человек

Внимание! Время в таблицах - всемирное. Для получения местного времени необходимо прибавить поправку, которая равна 1 ч.

Смотрите также архив погоды в соседних городах и на ближайших метеорологических станциях:

Погода в Новара (Италия) (47 км)
Погода в Турине Брик Делла Крос (Италия) (58 км)
Погода в Аэропорту Мальпенса (Италия) (59 км)
Погода в Турине (Италия) (64 км)
Погода в Турине Венария (Италия) (65 км)
Погода в Милане (Италия) (73 км)
Погода на Пассо-деи-Джиови (Италия) (75 км)
Погода в Генуе (Италия) (85 км)
Погода в Стабио (Швейцария) (88 км)
Погода в Мондови (Италия) (97 км)

Пояснения к столбцам:

Ветер - указаны скорость ветра в м/с - средняя за 10 мин, порывы в срок и между сроками (в фигурных скобках) и направление, откуда дует ветер: С - северный, СВ - северо-восточный, В - восточный, ЮВ - юго-восточный, Ю - южный, ЮЗ - юго-западный, З - западный, СЗ - северо-западный.
Видимость - горизонтальная дальность видимости в метрах или километрах. При видимости от 1 до 10 км при отсутствии осадков обычно наблюдается дымка, при ухудшении видимости до 1 км и менее - туман. В сухую погоду видимость может ухудшаться дымом, пылью или мглою.
Явления - указаны атмосферные явления, наблюдавшиеся в срок или в последний час перед сроком; фигурными скобками обозначены явления, наблюдавшиеся между сроками (за 1-3 часа до срока); квадратными скобками обозначены град или гололедные отложения с указанием их диаметра в мм.
Облачность - указаны через наклонную черту общая и нижняя облачность в баллах и высота нижней границы облаков в метрах; квадратными скобками обозначены формы облаков: Ci - перистые, Cs - перисто-слоистые, Cc - перисто-кучевые, Ac - высококучевые, As - высокослоистые, Sc - слоисто-кучевые, Ns - слоисто-дождевые, Cu - кучевые, Cb - кучево-дождевые. Подробнее классификацию облаков см. в Атласе облаков (PDF).
T - Температура воздуха - температура, измеренная на высоте 2 м над землей.
Td - Температура точки росы - температура, при понижении до которой содержащийся в воздухе водяной пар достигнет насыщения.
f - Относительная влажность воздуха - влажноcть воздуха, измеренная на высоте 2 м над землей.
Te - Эффективная температура - температура, которую ощущает одетый по сезону человек в тени. Характеристика душности погоды. При расчете учитывается влияние влажности воздуха и скорости ветра на теплоощущения человека.
Tes - Эффективная температура на солнце - температура, которую ощущает человек, с поправкой на солнечный нагрев. Характеристика знойности погоды. Зависит от высоты солнца над горизонтом, облачности и скорости ветра. Ночью, в пасмурную погоду, а также при ветре 12 м/с и более поправка равна нулю.
P - Атмосферное давление - приведенное к уровню моря атмосферное давление.
Po - Атмосферное давление - измеренное на уровне метеостанции атмосферное давление.
Tmin - Минимальная температура - минимум температуры воздуха на высоте 2 м над землей.
Tmax - Максимальная температура - максимум температуры воздуха на высоте 2 м над землей.
R - Количество осадков - Количество выпавших осадков за период времени, мм. При наведении курсора мыши на число - период времени, за который выпало указанное количество осадков.
R24 - Количество осадков - Количество выпавших осадков за 24 часа, мм.
S - Снежный покров - Высота снежного покрова, см. При наведении курсора мыши на число - состояние снежного покрова и степень покрытия местности в баллах.